Flag for Canada Weather past 2 weeks in Campbell River, British Columbia, Canada

Now
46 °F

Light rain. Cloudy.


Feels Like: 42 °F
Forecast: 44 / 50 °F
Wind: 8 mph from Southeast

Location: Campbell River Airport


UV Index: 0 (Low)

Visibility: 12 mi


Pressure: 30.03 "Hg

Humidity: 82%

Dew point: 41 °F

Location of Campbell RiverLocation

Historic Weather in Campbell River

°F

Campbell River temperature yesterday

Maximum temperature yesterday: 50 °F (at 10:00 AM)
Minimum temperature yesterday: 43 °F (at 7:52 PM)
Average temperature yesterday: 46 °F

Past Weeks' High & Low Weather Summary

 TemperatureHumidityPressure
High64 °F (Apr 12, 5:00 PM)100% (Apr 3, 4:00 PM)30.35 "Hg (Apr 3, 4:00 PM)
Low28 °F (Apr 9, 6:00 AM)10% (Apr 6, 9:00 AM)29.68 "Hg (Apr 17, 2:00 PM)
Average48 °F76%30.07 "Hg
* Reported Apr 3 4:00 PM — Apr 18 4:00 PM, Campbell River, Weather by CustomWeather, © 2014

Note: Actual official high and low records may vary slightly from our data, if they occured in-between our weather recording intervals... More about our weather records

Advertising

Historic Weather Conditions — Data for Previous 24 hours

 ConditionsComfort  
Time TempWeatherWind HumidityBarometerVisibility
4:00 PM
Apr 18
48 °FScattered showers. Cloudy.7 mph76%30.05 "Hg12 mi
3:00 PM50 °FMostly cloudy.13 mph58%30.06 "Hg30 mi
2:00 PM50 °FPartly sunny.12 mph54%30.06 "Hg30 mi
1:00 PM48 °FBroken clouds.12 mph62%30.06 "Hg30 mi
12:00 PM48 °FCloudy.7 mph66%30.06 "Hg30 mi
11:00 AM46 °FPartly sunny.8 mph66%30.06 "Hg30 mi
10:00 AM46 °FBroken clouds.5 mph71%30.03 "Hg30 mi
9:00 AM45 °FScattered clouds.2 mph71%30.03 "Hg30 mi
8:00 AM41 °FScattered clouds.2 mph81%30.02 "Hg30 mi
7:00 AM32 °FPassing clouds.2 mph100%29.99 "Hg20 mi
6:00 AM34 °FPassing clouds.2 mph93%29.96 "Hg15 mi
9:00 PM
Apr 17
43 °FBroken clouds.7 mph87%29.75 "Hg15 mi
8:00 PM43 °FPartly sunny.7 mph87%29.72 "Hg20 mi
7:52 PM43 °FBroken clouds.7 mph87%29.72 "Hg15 mi
7:00 PM45 °FLight rain. Mostly cloudy.8 mph93%29.72 "Hg15 mi
6:00 PM45 °FLight rain. Mostly cloudy.7 mph93%29.72 "Hg15 mi
Weather by CustomWeather, © 2014

See weather overview